#datint,netname,site,siteID,timestamp,IntT,BattV,AirT2,AirT,AirT_Avg,AirT_Max,AirT_Min,RH_Avg,RH_Max,RH_Min,EA_Avg,Td_Avg,Td_Max,Td_Min,WindS_Smp,WindS_Avg,WindD_Avg,WindD_SD,WindS_Max,ETo,ETr,SoilT4,SoilT8,SoilVWC8,SolarW_Avg,wetstate_Avg,wetT_Avg,Precip_accum,Precip_WPG,Precip_TB
15min,AgWx,beryljct,423,22APR2021:01:00:00,40.9,12.84,34.6,34.8,36.7,39.6,34.8,66,72,60,0.409,26.3,27.9,22.3,3.683,4.3,155,22,5.7,0.00002,0.00004,52.2,52.7,13,0,0,.,8.36,0.00,0.00
15min,AgWx,beryljct,423,22APR2021:01:15:00,39.8,12.83,41.4,41.6,37.1,41.6,34.3,60,67,54,0.478,24.5,26.2,22.0,2.302,2.8,212,14,4.0,-0.00003,-0.00002,51.9,52.6,13,0,0,.,8.36,0.00,0.00
15min,AgWx,beryljct,423,22APR2021:01:30:00,39.0,12.82,40.6,39.5,38.4,41.5,36.2,61,67,54,0.481,26.2,27.3,24.7,2.85,2.7,205,15,3.1,-0.00004,-0.00004,51.7,52.6,13,0,0,.,8.35,0.00,0.00
15min,AgWx,beryljct,423,22APR2021:01:45:00,38.4,12.81,40.4,38.0,39.1,40.5,37.6,58,61,56,0.472,25.5,26.2,24.5,2.543,3.0,182,6.2,3.9,-0.00001,0.00001,51.4,52.5,13,0,0,.,8.36,0.00,0.00
15min,AgWx,beryljct,423,22APR2021:02:00:00,38.2,12.8,42.2,42.4,41.1,42.7,38.3,52,61,48,0.445,25.0,26.1,24.3,1.885,1.6,147,22,3.2,-0.00011,-0.00013,51.1,52.5,13,0,0,.,8.36,0.00,0.00
15min,AgWx,beryljct,423,22APR2021:02:15:00,38.3,12.8,41.1,40.6,40.4,42.3,37.8,52,58,48,0.441,24.0,24.6,23.4,3.661,2.5,174,28,3.7,-0.00003,-0.00002,50.8,52.4,13,0,0,.,8.36,0.00,0.00
15min,AgWx,beryljct,423,22APR2021:02:30:00,38.2,12.79,37.7,39.6,39.4,40.8,36.4,54,62,51,0.433,24.3,25.5,23.6,0.57,2.4,191,29,3.7,-0.00004,-0.00003,50.6,52.3,13,0,0,.,8.36,0.00,0.00
15min,AgWx,beryljct,423,22APR2021:02:45:00,37.8,12.79,37.6,36.0,37.7,39.3,35.8,58,63,53,0.428,24.1,24.9,23.2,3.464,2.6,185,24,4.0,-0.00004,-0.00003,50.3,52.3,13,0,0,.,8.36,0.00,0.00
15min,AgWx,beryljct,423,22APR2021:03:00:00,37.5,12.77,39.6,39.2,38.7,40.9,35.7,55,62,50,0.438,24.0,24.7,23.3,4.319,3.2,163,24,5.1,0.00001,0.00003,50.1,52.2,13,0,0,.,8.36,0.00,0.00
15min,AgWx,beryljct,423,22APR2021:03:15:00,37.3,12.77,35.7,34.0,35.7,39.4,33.0,56,60,52,0.389,21.4,24.0,19.3,1.951,3.7,185,10,4.8,0.00003,0.00006,49.8,52.1,13,0,0,.,8.36,0.00,0.00
15min,AgWx,beryljct,423,22APR2021:03:30:00,36.4,12.76,32.2,34.6,33.7,35.4,32.6,65,67,59,0.434,23.1,24.7,21.4,1.491,1.6,199,12,2.5,-0.00012,-0.00015,49.6,52.1,13,0,0,.,8.37,0.00,0.00
15min,AgWx,beryljct,423,22APR2021:03:45:00,35.6,12.74,30.3,31.1,33.5,35.7,31.1,68,72,64,0.412,23.9,26.0,22.4,2.981,1.8,308,57,3.9,-0.00011,-0.00013,49.4,52.0,13,0,0,.,8.36,0.00,0.00
15min,AgWx,beryljct,423,22APR2021:04:00:00,34.8,12.74,34.3,34.9,32.3,35.2,30.4,66,72,59,0.404,22.2,23.0,21.3,3.31,3.4,313,8.3,3.8,-0.00002,-0.00001,49.1,51.9,13,0,0,.,8.36,0.00,0.00
15min,AgWx,beryljct,423,22APR2021:04:15:00,34.5,12.72,31.1,31.2,33.7,34.9,31.2,60,66,58,0.388,21.3,22.2,20.4,4.099,3.8,325,8.3,4.7,0.00001,0.00004,48.8,51.8,13,0,0,.,8.37,0.00,0.00
15min,AgWx,beryljct,423,22APR2021:04:30:00,34.0,12.72,32.0,30.6,32.2,33.7,30.5,66,70,63,0.405,22.0,22.8,21.0,2.17,3.3,307,6.8,4.4,-0.00002,-0.00001,48.6,51.7,13,0,0,.,8.36,0.00,0.00
15min,AgWx,beryljct,423,22APR2021:04:45:00,33.4,12.72,31.0,30.8,31.2,32.1,30.5,68,71,66,0.391,21.9,22.9,21.0,3.595,3.0,314,7.8,3.8,-0.00004,-0.00004,48.4,51.6,13,0,0,.,8.36,0.00,0.00
15min,AgWx,beryljct,423,22APR2021:05:00:00,32.8,12.71,32.7,31.7,30.2,31.7,29.5,74,80,67,0.435,23.0,24.6,21.1,1.315,1.4,306,12,3.5,-0.00013,-0.00017,48.2,51.5,13,0,0,.,8.37,0.00,0.00
15min,AgWx,beryljct,423,22APR2021:05:15:00,32.3,12.7,30.4,30.7,31.7,32.5,30.7,71,73,69,0.414,23.3,24.2,22.6,0,1.5,294,11,2.5,-0.00013,-0.00016,48.0,51.5,13,0,0,.,8.37,0.00,0.00
15min,AgWx,beryljct,423,22APR2021:05:30:00,31.9,12.67,30.9,31.2,31.7,32.6,30.1,73,76,71,0.436,23.9,24.6,22.6,2.105,0.8,290,17,2.6,-0.00018,-0.00025,47.7,51.4,13,0,0,.,8.37,0.00,0.00
15min,AgWx,beryljct,423,22APR2021:05:45:00,31.8,12.68,29.1,30.0,31.0,32.6,30.0,74,78,67,0.378,23.6,25.7,20.4,2.148,2.5,210,27,3.9,-0.00008,-0.00009,47.6,51.3,13,0,0,.,8.37,0.00,0.00
15min,AgWx,beryljct,423,22APR2021:06:00:00,31.5,12.67,28.1,27.4,28.4,29.8,27.3,72,75,68,0.378,20.5,21.2,19.9,1.184,2.2,163,13,3.4,-0.00008,-0.00010,47.3,51.2,13,0,0,.,8.37,0.00,0.00
15min,AgWx,beryljct,423,22APR2021:06:15:00,30.9,12.66,27.9,27.2,27.5,28.4,26.9,73,76,69,0.384,19.8,20.8,19.4,1.14,0.7,139,15,2.7,0.00004,0.00006,47.1,51.1,13,0,0,.,8.37,0.00,0.00
15min,AgWx,beryljct,423,22APR2021:06:30:00,30.3,12.66,27.3,26.8,28.0,28.9,26.8,73,78,70,0.383,20.5,21.1,19.5,1.184,0.6,99,48,2.0,0.00003,0.00005,47.0,51.0,13,0,0,.,8.37,0.00,0.00
15min,AgWx,beryljct,423,22APR2021:06:45:00,29.8,12.64,24.9,24.8,26.3,27.7,24.7,76,81,72,0.366,19.7,20.9,18.9,0.132,2.0,36,22,3.2,0.00008,0.00013,46.8,50.9,13,1,0,.,8.37,0.00,0.00
15min,AgWx,beryljct,423,22APR2021:07:00:00,29.2,12.65,25.2,25.1,25.2,25.9,24.5,81,83,79,0.380,20.2,21.1,19.5,1.556,2.0,332,23,3.7,0.00008,0.00013,46.6,50.8,13,7,0,.,8.37,0.00,0.00
15min,AgWx,beryljct,423,22APR2021:07:15:00,28.8,12.65,27.1,26.1,25.2,26.1,24.8,81,83,78,0.375,20.0,20.6,19.7,1.776,2.1,293,22,2.7,0.00014,0.00019,46.4,50.7,13,23,0,.,8.37,0.00,0.00
15min,AgWx,beryljct,423,22APR2021:07:30:00,28.8,12.68,29.3,28.1,27.6,28.4,26.2,74,78,71,0.386,20.5,21.1,20.0,0,0.7,264,1.6,2.3,0.00016,0.00019,46.2,50.6,13,32,0,.,8.37,0.00,0.00
15min,AgWx,beryljct,423,22APR2021:07:45:00,29.4,12.7,30.8,30.2,29.2,30.2,28.2,74,76,71,0.409,22.0,23.3,20.6,0.438,0.0,263,0.2,0.5,0.00026,0.00028,46.0,50.5,13,60,0,.,8.37,0.00,0.00
15min,AgWx,beryljct,423,22APR2021:08:00:00,30.6,12.7,30.5,30.0,29.7,30.3,29.4,77,80,71,0.451,23.4,24.6,22.0,0.921,1.8,59,26,2.9,0.00026,0.00032,45.8,50.4,13,48,0,.,8.37,0.00,0.00
15min,AgWx,beryljct,423,22APR2021:08:15:00,31.8,12.76,32.0,31.4,30.7,31.4,29.9,78,82,71,0.423,24.7,25.7,23.1,1.907,0.7,26,60,2.9,0.00034,0.00038,45.6,50.3,13,75,0,.,8.37,0.00,0.00
15min,AgWx,beryljct,423,22APR2021:08:30:00,33.2,12.79,34.7,34.4,32.6,34.4,31.4,68,71,63,0.426,23.2,24.5,22.6,2.061,2.0,347,15,2.7,0.00053,0.00064,45.5,50.2,13,103,0,.,8.37,0.00,0.00
15min,AgWx,beryljct,423,22APR2021:08:45:00,35.0,12.96,36.9,36.6,36.1,37.7,34.4,68,72,64,0.522,26.6,28.7,23.3,3.508,1.6,343,66,3.7,0.00077,0.00088,45.4,50.1,13,159,0,.,8.36,0.00,0.00
15min,AgWx,beryljct,423,22APR2021:09:00:00,37.2,13.17,39.3,38.1,37.3,38.2,36.5,71,74,64,0.501,28.6,30.0,26.7,3.464,3.1,153,17,5.1,0.00107,0.00125,45.4,50.0,13,231,0,.,8.36,0.00,0.00
15min,AgWx,beryljct,423,22APR2021:09:15:00,39.4,13.51,41.5,40.9,39.7,40.9,38.1,59,64,56,0.522,26.5,28.1,25.7,3.266,2.5,174,14,4.1,0.00139,0.00162,45.3,49.9,13,290,0,.,8.36,0.00,0.00
15min,AgWx,beryljct,423,22APR2021:09:30:00,42.6,14.55,44.3,44.3,42.7,44.8,41.0,58,63,53,0.544,28.8,30.7,27.1,1.863,2.6,153,16,4.1,0.00209,0.00239,45.4,49.8,13,449,0,.,8.36,0.00,0.00
15min,AgWx,beryljct,423,22APR2021:09:45:00,46.3,14.52,45.6,46.1,45.5,47.2,44.0,51,55,47,0.525,28.3,29.3,27.2,2.718,1.6,151,68,3.9,0.00253,0.00282,45.3,49.7,13,516,0,.,8.36,0.00,0.00
15min,AgWx,beryljct,423,22APR2021:10:00:00,49.8,14.42,48.0,48.2,47.1,48.6,46.0,47,51,43,0.502,28.0,30.0,27.0,1.008,2.1,17,40,4.9,0.00290,0.00327,45.3,49.6,13,577,0,.,8.35,0.00,0.00
15min,AgWx,beryljct,423,22APR2021:10:15:00,52.8,14.4,49.9,49.3,48.6,49.3,47.9,42,46,40,0.491,26.8,29.2,25.4,3.113,2.4,350,27,5.2,0.00322,0.00365,45.7,49.5,13,623,0,.,8.35,0.00,0.00
15min,AgWx,beryljct,423,22APR2021:10:30:00,55.2,14.35,49.9,51.1,50.1,51.5,49.1,41,45,38,0.514,27.3,29.6,25.6,6.883,3.2,36,43,7.8,0.00354,0.00407,45.7,49.4,13,669,0,.,8.34,0.00,0.00
15min,AgWx,beryljct,423,22APR2021:10:45:00,56.9,14.34,51.7,51.4,50.9,51.7,50.4,39,41,35,0.510,26.5,28.6,24.3,0.965,3.6,52,42,8.2,0.00382,0.00442,46.1,49.3,13,711,0,.,8.34,0.00,0.00
15min,AgWx,beryljct,423,22APR2021:11:00:00,58.5,14.3,53.5,52.1,51.8,52.8,51.2,37,41,33,0.540,26.5,29.6,23.8,3.223,2.5,55,59,6.4,0.00406,0.00459,46.3,49.2,13,751,0,.,8.34,0.00,0.00
15min,AgWx,beryljct,423,22APR2021:11:15:00,59.4,14.28,51.7,53.2,52.7,53.4,52.2,37,44,33,0.470,26.9,31.4,24.1,2.674,4.6,78,26,10.6,0.00434,0.00508,46.7,49.2,13,790,0,.,8.34,0.00,0.00
15min,AgWx,beryljct,423,22APR2021:11:30:00,60.4,14.26,53.3,53.2,53.3,54.2,52.5,34,39,30,0.499,25.7,29.8,21.6,4.472,3.4,71,43,6.7,0.00455,0.00521,47.2,49.1,13,823,0,.,8.33,0.00,0.00
15min,AgWx,beryljct,423,22APR2021:11:45:00,60.9,13.85,53.5,53.8,54.1,55.3,52.9,36,42,31,0.481,27.9,32.6,23.9,6.007,5.1,84,36,9.0,0.00475,0.00557,47.6,49.1,13,854,0,.,8.33,0.00,0.00
15min,AgWx,beryljct,423,22APR2021:12:00:00,61.3,13.84,55.1,54.8,54.3,55.1,53.5,33,38,29,0.518,26.0,29.6,22.2,4.406,4.2,75,70,8.2,0.00492,0.00570,48.3,49.0,13,882,0,.,8.33,0.00,0.00
15min,AgWx,beryljct,423,22APR2021:12:15:00,62.1,13.84,59.1,56.3,55.5,56.5,54.2,32,36,28,0.449,25.8,29.5,23.1,5.261,3.6,152,67,9.5,0.00513,0.00588,48.7,49.0,13,906,0,.,8.32,0.00,0.00
15min,AgWx,beryljct,423,22APR2021:12:30:00,62.7,13.89,56.5,55.9,56.0,57.0,55.3,30,36,25,0.415,24.7,30.0,20.5,8.33,4.4,32,42,9.0,0.00531,0.00617,49.3,49.0,13,928,0,.,8.32,0.00,0.00
15min,AgWx,beryljct,423,22APR2021:12:45:00,63.5,13.8,56.8,56.2,56.0,56.6,55.5,27,34,24,0.446,22.4,28.0,19.7,7.278,3.2,89,70,8.1,0.00539,0.00615,49.1,49.0,13,948,0,.,8.31,0.00,0.00
15min,AgWx,beryljct,423,22APR2021:13:00:00,64.2,13.79,57.2,57.2,57.3,58.6,56.2,26,32,22,0.441,22.3,28.8,18.6,9.49,4.9,351,34,9.5,0.00559,0.00656,50.8,49.0,13,959,0,.,8.32,0.00,0.00
15min,AgWx,beryljct,423,22APR2021:13:15:00,64.7,13.77,58.0,58.4,57.6,58.7,56.7,28,33,23,0.470,24.8,29.3,20.4,8.53,5.2,46,62,11.9,0.00562,0.00662,51.5,49.0,13,966,0,.,8.31,0.00,0.00
15min,AgWx,beryljct,423,22APR2021:13:30:00,64.8,13.89,61.8,59.3,58.4,59.5,57.6,27,33,23,0.503,24.5,29.7,19.7,7.453,5.9,222,66,12.9,0.00575,0.00684,52.2,49.0,13,974,0,.,8.32,0.00,0.00
15min,AgWx,beryljct,423,22APR2021:13:45:00,64.9,13.79,58.5,59.0,59.1,59.7,58.4,26,34,21,0.452,24.2,30.9,18.5,4.976,7.0,332,29,12.8,0.00586,0.00709,52.8,49.1,13,979,0,.,8.31,0.00,0.00
15min,AgWx,beryljct,423,22APR2021:14:00:00,65.4,13.79,59.3,59.0,59.2,60.0,58.6,23,27,21,0.364,21.6,25.8,18.6,2.389,4.8,342,35,9.8,0.00586,0.00689,53.5,49.1,13,981,0,.,8.31,0.00,0.00
15min,AgWx,beryljct,423,22APR2021:14:15:00,65.8,13.77,59.8,60.0,59.8,60.8,58.5,25,30,21,0.411,23.4,29.5,19.3,5.985,6.9,310,35,13.6,0.00533,0.00653,54.2,49.2,13,858,0,.,8.31,0.00,0.00
15min,AgWx,beryljct,423,22APR2021:14:30:00,66.4,13.75,59.5,59.6,60.7,61.6,59.6,23,31,19,0.445,22.9,30.2,18.7,5.897,6.1,348,38,10.0,0.00508,0.00622,54.8,49.3,13,791,0,.,8.31,0.00,0.00
15min,AgWx,beryljct,423,22APR2021:14:45:00,65.6,13.78,59.2,59.7,59.4,60.5,58.2,26,31,23,0.456,24.5,29.0,21.8,9.82,7.9,205,43,12.4,0.00337,0.00453,55.3,49.4,13,413,0,.,8.31,0.00,0.00
15min,AgWx,beryljct,423,22APR2021:15:00:00,64.9,13.78,57.4,57.9,59.6,61.1,57.9,28,36,22,0.532,26.1,33.6,20.4,3.266,6.9,127,38,17.0,0.00387,0.00496,55.9,49.6,13,553,0,.,8.31,0.00,0.00
15min,AgWx,beryljct,423,22APR2021:15:15:00,63.5,13.78,59.6,59.0,58.1,59.1,57.6,31,41,24,0.531,27.3,34.2,21.7,6.686,5.3,102,17,9.3,0.00243,0.00322,56.3,49.7,13,290,0,.,8.32,0.00,0.00
15min,AgWx,beryljct,423,22APR2021:15:30:00,63.3,13.76,60.5,61.5,60.1,61.9,58.3,28,36,22,0.518,26.7,33.5,22.0,3.946,6.0,117,39,11.8,0.00451,0.00555,56.7,49.8,13,736,0,.,8.32,0.00,0.00
15min,AgWx,beryljct,423,22APR2021:15:45:00,65.6,13.69,61.5,62.1,61.5,62.5,60.3,27,34,21,0.493,27.1,32.8,21.4,9.38,6.4,136,24,12.5,0.00569,0.00687,56.9,50.0,13,917,0,.,8.31,0.00,0.00
15min,AgWx,beryljct,423,22APR2021:16:00:00,67.1,13.69,62.9,61.5,62.3,63.6,61.0,25,31,20,0.390,25.6,31.4,20.0,6.62,7.8,171,28,12.9,0.00462,0.00593,57.2,50.1,13,696,0,.,8.31,0.00,0.00
15min,AgWx,beryljct,423,22APR2021:16:15:00,67.8,13.66,62.5,63.2,63.0,64.2,61.6,22,25,18,0.373,23.2,27.3,19.0,10.7,8.2,192,16,14.9,0.00511,0.00654,57.5,50.3,13,762,0,.,8.31,0.00,0.00
15min,AgWx,beryljct,423,22APR2021:16:30:00,67.9,13.68,61.4,61.8,62.0,63.1,61.1,22,29,17,0.333,22.0,28.2,16.7,6.511,7.9,175,37,15.2,0.00352,0.00480,57.8,50.5,13,454,0,.,8.32,0.00,0.00
15min,AgWx,beryljct,423,22APR2021:16:45:00,66.7,13.73,61.3,61.5,61.4,61.9,61.0,20,24,17,0.333,20.0,24.6,15.5,3.464,5.8,192,14,10.8,0.00252,0.00352,58.1,50.6,13,279,0,.,8.32,0.00,0.00
15min,AgWx,beryljct,423,22APR2021:17:00:00,65.3,13.78,59.9,60.0,60.0,61.3,58.9,25,33,18,0.446,24.3,30.2,17.3,6.072,6.1,137,13,9.9,0.00212,0.00305,58.4,50.8,13,207,0,.,8.32,0.00,0.00
15min,AgWx,beryljct,423,22APR2021:17:15:00,64.1,13.78,61.1,61.1,60.5,61.2,59.5,22,29,17,0.329,20.9,27.1,15.4,4.297,4.2,157,23,7.7,0.00185,0.00259,58.5,50.9,13,209,0,.,8.32,0.00,0.00
15min,AgWx,beryljct,423,22APR2021:17:30:00,63.6,13.83,60.1,60.5,60.9,61.5,60.5,21,26,16,0.382,20.2,25.4,14.9,8.59,9.5,204,39,17.0,0.00252,0.00389,58.6,51.1,13,204,0,.,8.32,0.00,0.00
15min,AgWx,beryljct,423,22APR2021:17:45:00,62.9,13.83,61.0,61.6,60.8,61.8,59.7,19,26,14,0.393,17.8,25.0,12.0,1.929,4.7,258,25,10.0,0.00169,0.00251,58.5,51.2,13,172,0,.,8.32,0.00,0.00
15min,AgWx,beryljct,423,22APR2021:18:00:00,63.0,13.82,61.7,60.9,61.4,62.4,60.7,23,30,16,0.358,22.6,30.3,14.9,3.793,4.1,344,55,8.4,0.00170,0.00241,58.4,51.4,13,268,0,.,8.32,0.00,0.00
15min,AgWx,beryljct,423,22APR2021:18:15:00,63.9,13.79,63.2,63.1,62.0,63.4,60.5,22,30,17,0.434,22.3,30.1,15.9,5.678,4.9,358,46,9.1,0.00278,0.00368,58.3,51.6,13,428,0,.,8.32,0.00,0.00
15min,AgWx,beryljct,423,22APR2021:18:30:00,65.7,13.71,62.9,62.9,63.0,63.3,62.7,18,28,13,0.270,18.5,29.1,12.1,0.877,7.7,270,56,15.5,0.00373,0.00508,58.2,51.7,13,511,0,.,8.32,0.00,0.00
15min,AgWx,beryljct,423,22APR2021:18:45:00,67.0,13.67,62.5,62.6,63.1,63.8,62.6,18,23,14,0.327,18.1,25.0,12.5,14.05,6.2,280,32,17.2,0.00287,0.00398,58.2,51.8,13,398,0,.,8.32,0.00,0.00
15min,AgWx,beryljct,423,22APR2021:19:00:00,66.5,13.69,61.1,61.5,61.9,62.6,61.3,19,23,16,0.378,18.9,23.0,15.1,11.44,11.9,265,14,18.5,0.00304,0.00473,58.1,52.0,13,304,0,.,8.32,0.00,0.00
15min,AgWx,beryljct,423,22APR2021:19:15:00,65.5,13.21,60.4,60.3,61.1,61.5,60.3,20,23,17,0.400,19.3,22.6,15.9,7.168,9.7,263,14,13.5,0.00236,0.00377,58.1,52.1,13,232,0,.,8.32,0.00,0.00
15min,AgWx,beryljct,423,22APR2021:19:30:00,64.5,13.14,60.7,60.6,60.6,61.1,60.1,19,23,17,0.345,18.7,21.9,16.2,13.04,10.9,254,23,18.4,0.00133,0.00161,58.0,52.2,13,188,0,.,8.33,0.00,0.00
15min,AgWx,beryljct,423,22APR2021:19:45:00,63.8,13.08,58.7,59.6,60.6,61.1,59.6,18,21,15,0.362,17.0,20.2,13.1,8.66,10.6,331,47,19.7,0.00129,0.00157,57.9,52.3,13,150,0,.,8.32,0.00,0.00
15min,AgWx,beryljct,423,22APR2021:20:00:00,62.6,13.06,59.0,58.8,59.4,60.7,58.2,19,23,16,0.299,17.2,21.1,14.0,9.71,8.2,302,38,13.5,0.00101,0.00128,57.7,52.4,13,80,0,.,8.33,0.00,0.00
15min,AgWx,beryljct,423,22APR2021:20:15:00,61.2,13.02,56.8,56.9,58.0,59.1,56.9,18,20,16,0.309,15.3,16.7,13.0,6.204,8.5,282,5.6,12.6,0.00093,0.00117,57.5,52.5,13,32,0,.,8.33,0.00,0.00
15min,AgWx,beryljct,423,22APR2021:20:30:00,59.4,12.99,55.6,55.9,56.3,57.0,55.7,19,21,18,0.302,15.0,16.3,12.5,7.607,7.8,275,6.4,11.4,0.00079,0.00101,57.3,52.6,13,4,0,.,8.33,0.00,0.00
15min,AgWx,beryljct,423,22APR2021:20:45:00,58.0,12.98,55.3,55.8,55.9,56.3,55.6,18,20,17,0.273,13.3,15.5,11.6,6.993,8.4,276,7.4,11.8,0.00082,0.00104,57.1,52.7,13,0,0,.,8.33,0.00,0.00
15min,AgWx,beryljct,423,22APR2021:21:00:00,56.8,12.97,51.7,52.1,54.5,55.6,52.1,20,26,16,0.351,14.1,18.7,9.6,1.907,5.4,327,19,8.6,0.00060,0.00080,56.9,52.8,13,0,0,.,8.33,0.00,0.00
15min,AgWx,beryljct,423,22APR2021:21:15:00,55.2,12.96,53.0,51.6,52.2,53.3,51.3,24,27,21,0.335,16.4,19.2,13.2,2.28,3.6,281,29,5.1,0.00038,0.00055,56.6,52.8,13,0,0,.,8.33,0.00,0.00
15min,AgWx,beryljct,423,22APR2021:21:30:00,53.4,12.95,50.6,48.9,51.5,53.2,48.9,24,28,19,0.309,15.3,19.1,10.8,6.182,4.6,260,12,6.5,0.00046,0.00063,56.4,52.9,13,0,0,.,8.33,0.00,0.00
15min,AgWx,beryljct,423,22APR2021:21:45:00,51.7,12.94,50.1,48.5,50.0,51.7,47.6,22,30,19,0.280,12.8,18.5,9.4,5.853,5.5,253,2.9,7.5,0.00052,0.00069,56.1,53.0,13,0,0,.,8.33,0.00,0.00
15min,AgWx,beryljct,423,22APR2021:22:00:00,50.2,12.93,49.7,49.6,49.2,50.5,48.1,24,27,22,0.280,14.2,16.3,12.4,5.13,5.8,256,4.7,7.1,0.00051,0.00067,55.8,53.0,13,0,0,.,8.33,0.00,0.00
15min,AgWx,beryljct,423,22APR2021:22:15:00,48.8,12.92,46.2,46.6,47.9,49.7,46.5,27,31,22,0.320,15.4,17.6,12.1,7.037,6.4,252,3.7,7.8,0.00051,0.00066,55.5,53.0,13,0,0,.,8.33,0.00,0.00
15min,AgWx,beryljct,423,22APR2021:22:30:00,47.8,12.92,46.9,46.2,46.3,46.8,45.6,28,30,26,0.286,14.9,16.7,13.4,8.57,7.2,251,4.4,9.5,0.00051,0.00065,55.2,53.1,13,0,0,.,8.33,0.00,0.00
15min,AgWx,beryljct,423,22APR2021:22:45:00,47.1,12.91,46.4,46.0,46.5,49.0,45.6,26,29,20,0.286,13.5,15.2,9.9,7.497,7.2,247,5.7,8.9,0.00053,0.00067,54.9,53.1,13,0,0,.,8.33,0.00,0.00
15min,AgWx,beryljct,423,22APR2021:23:00:00,46.5,12.91,47.4,46.5,46.4,46.9,46.1,26,27,24,0.273,13.2,13.9,12.2,8.13,7.2,255,2.2,8.2,0.00053,0.00067,54.6,53.1,13,0,0,.,8.34,0.00,0.00
15min,AgWx,beryljct,423,22APR2021:23:15:00,46.4,12.9,46.2,46.8,47.3,48.1,46.5,24,27,23,0.289,12.6,14.2,11.5,4.823,7.3,259,5.1,9.1,0.00056,0.00071,54.3,53.1,13,0,0,.,8.34,0.00,0.00
15min,AgWx,beryljct,423,22APR2021:23:30:00,46.2,12.89,46.8,47.4,46.6,47.5,44.8,29,35,26,0.304,15.7,18.8,13.8,4.45,4.1,282,13,5.6,0.00035,0.00048,54.0,53.1,13,0,0,.,8.33,0.00,0.00
15min,AgWx,beryljct,423,22APR2021:23:45:00,45.7,12.88,45.3,44.8,45.0,47.9,43.1,30,36,25,0.265,15.5,18.6,12.0,0.614,2.6,353,50,5.6,0.00022,0.00032,53.7,53.1,13,0,0,.,8.33,0.00,0.00
15min,AgWx,beryljct,423,23APR2021:00:00:00,44.9,12.88,46.9,45.1,44.4,45.2,43.4,30,35,26,0.315,14.7,17.9,11.9,4.998,1.7,321,36,5.0,0.00012,0.00019,53.4,53.1,13,0,0,.,8.33,0.00,0.00
15min,AgWx,beryljct,423,23APR2021:00:15:00,45.0,12.87,48.1,48.0,47.7,48.6,45.3,27,30,24,0.296,14.9,16.1,13.1,5.765,6.2,274,7.1,7.7,0.00050,0.00064,53.1,53.0,13,0,0,.,8.34,0.00,0.00
15min,AgWx,beryljct,423,23APR2021:00:30:00,45.4,12.87,49.9,48.1,47.5,48.3,46.0,28,31,25,0.300,15.6,17.4,14.2,8.97,5.4,292,7.8,9.0,0.00044,0.00059,52.8,53.0,13,0,0,.,8.33,0.00,0.00
15min,AgWx,beryljct,423,23APR2021:00:45:00,45.7,12.85,36.8,37.9,46.9,49.2,37.9,30,52,24,0.403,16.3,21.9,13.9,5.13,5.0,307,56,8.7,0.00041,0.00055,52.6,53.0,13,0,0,.,8.34,0.00,0.00
15min,AgWx,bigpiney,439,22APR2021:01:00:00,23.7,12.58,21.8,21.3,20.8,21.3,20.3,80,84,77,0.316,15.5,17.0,14.4,0.658,0.4,285,18,1.5,-0.00006,-0.00009,31.9,31.9,14,0,0,0.0,0.74,0.00,0.00
15min,AgWx,bigpiney,439,22APR2021:01:15:00,23.2,12.57,21.3,20.8,20.9,21.5,20.4,76,80,72,0.281,14.5,16.2,12.9,1.381,0.9,227,24,2.7,-0.00004,-0.00005,31.9,31.8,14,0,0,0.0,0.74,0.00,0.00
15min,AgWx,bigpiney,439,22APR2021:01:30:00,22.7,12.57,21.5,21.1,21.1,21.5,20.9,79,82,73,0.307,15.6,16.5,13.6,0.811,1.0,274,15,1.6,-0.00004,-0.00005,31.9,31.8,14,0,0,0.0,0.74,0.00,0.00
15min,AgWx,bigpiney,439,22APR2021:01:45:00,22.4,12.55,18.3,18.3,20.7,21.7,18.1,77,80,75,0.270,14.8,15.6,12.3,1.162,0.6,258,20,2.0,-0.00005,-0.00007,31.9,31.7,14,0,0,0.0,0.74,0.00,0.00
15min,AgWx,bigpiney,439,22APR2021:02:00:00,21.8,12.53,20.7,19.9,18.1,20.0,16.4,81,85,77,0.312,13.4,16.1,11.1,1.688,2.0,243,20,3.9,-0.00002,-0.00002,31.8,31.8,14,0,0,0.0,0.74,0.00,0.00
15min,AgWx,bigpiney,439,22APR2021:02:15:00,21.3,12.54,19.7,19.0,19.1,20.2,17.8,82,85,79,0.282,14.5,16.1,12.9,0.986,1.4,260,30,2.5,-0.00003,-0.00004,31.8,31.9,14,0,0,0.0,0.74,0.00,0.00
15min,AgWx,bigpiney,439,22APR2021:02:30:00,20.9,12.52,17.6,17.3,18.9,19.3,17.3,78,79,77,0.259,13.3,13.9,11.7,0.395,1.1,290,23,3.5,-0.00003,-0.00004,31.8,31.8,14,0,0,0.0,0.74,0.00,0.00
15min,AgWx,bigpiney,439,22APR2021:02:45:00,20.4,12.52,17.8,17.0,17.5,18.6,16.9,78,80,76,0.251,11.8,12.8,10.9,0.548,0.8,196,19,2.0,-0.00004,-0.00005,31.8,31.8,14,0,0,0.0,0.74,0.00,0.00
15min,AgWx,bigpiney,439,22APR2021:03:00:00,20.0,12.51,20.4,19.9,18.8,20.0,17.1,78,83,74,0.275,13.1,14.1,11.1,1.973,1.6,299,13,4.0,-0.00002,-0.00002,31.8,31.9,14,0,0,0.0,0.74,0.00,0.00
15min,AgWx,bigpiney,439,22APR2021:03:15:00,19.8,12.5,19.2,19.1,19.6,20.0,19.1,77,80,74,0.276,13.5,14.2,13.1,0.943,1.6,293,10,3.1,-0.00002,-0.00002,31.8,31.8,14,0,0,0.0,0.74,0.00,0.00
15min,AgWx,bigpiney,439,22APR2021:03:30:00,19.8,12.47,17.9,18.7,19.1,19.4,18.7,78,80,77,0.276,13.4,14.1,12.9,1.315,1.2,256,8.0,1.7,-0.00003,-0.00004,31.8,31.8,14,0,0,0.0,0.74,0.00,0.00
15min,AgWx,bigpiney,439,22APR2021:03:45:00,19.5,12.48,20.1,19.9,19.0,19.9,18.4,79,80,77,0.294,13.6,14.7,12.5,1.995,1.5,262,14,2.5,-0.00002,-0.00003,31.8,31.8,14,0,0,0.0,0.74,0.00,0.00
15min,AgWx,bigpiney,439,22APR2021:04:00:00,19.1,12.47,19.9,19.3,19.7,20.6,18.5,79,81,77,0.290,14.3,15.1,12.7,1.513,1.6,269,31,2.4,-0.00002,-0.00003,31.8,31.8,14,0,0,0.0,0.74,0.00,0.00
15min,AgWx,bigpiney,439,22APR2021:04:15:00,19.0,12.46,18.7,18.4,19.2,19.7,18.4,78,81,76,0.267,13.6,14.5,12.4,0,0.9,289,28,1.9,-0.00004,-0.00005,31.8,31.8,14,0,0,0.0,0.74,0.00,0.00
15min,AgWx,bigpiney,439,22APR2021:04:30:00,18.8,12.44,15.4,15.2,17.3,18.6,15.0,78,81,75,0.244,11.7,12.9,9.6,2.368,1.0,244,13,2.8,-0.00003,-0.00004,31.8,31.8,14,0,0,0.0,0.74,0.00,0.00
15min,AgWx,bigpiney,439,22APR2021:04:45:00,18.3,12.43,14.6,14.0,15.0,17.2,13.2,81,82,79,0.235,10.2,12.5,8.6,3.332,3.0,226,11,4.8,0.00000,0.00001,31.8,31.8,14,0,0,0.0,0.74,0.00,0.00
15min,AgWx,bigpiney,439,22APR2021:05:00:00,17.8,12.41,14.2,13.8,13.9,14.2,13.6,82,83,81,0.233,9.4,9.8,9.0,3.113,3.3,217,4.3,4.0,0.00000,0.00001,31.8,31.8,14,0,0,0.0,0.74,0.00,0.00
15min,AgWx,bigpiney,439,22APR2021:05:15:00,17.4,12.41,13.6,13.2,13.4,13.9,12.8,83,84,82,0.228,9.1,9.7,8.3,4.121,3.8,217,4.4,4.4,0.00001,0.00001,31.8,31.9,14,0,0,0.0,0.74,0.00,0.00
15min,AgWx,bigpiney,439,22APR2021:05:30:00,16.9,12.4,17.3,16.8,14.6,16.8,12.8,83,84,81,0.262,10.3,12.0,8.5,3.946,3.9,231,7.3,4.6,0.00001,0.00001,31.8,31.7,14,0,0,0.0,0.74,0.00,0.00
15min,AgWx,bigpiney,439,22APR2021:05:45:00,16.8,12.37,15.3,14.7,15.2,16.7,14.6,81,81,80,0.240,10.3,11.9,9.7,4.494,3.8,221,8.2,4.8,0.00001,0.00002,31.8,31.8,14,0,0,0.0,0.74,0.00,0.00
15min,AgWx,bigpiney,439,22APR2021:06:00:00,16.7,12.35,15.9,14.9,14.2,14.9,13.5,81,82,80,0.242,9.5,10.4,8.8,3.398,4.1,221,7.2,5.0,0.00001,0.00002,31.8,31.8,14,0,0,0.0,0.74,0.00,0.00
15min,AgWx,bigpiney,439,22APR2021:06:15:00,16.6,12.34,14.8,15.3,15.8,16.3,14.9,81,82,80,0.244,11.0,11.8,10.2,3.42,3.8,228,8.0,5.1,0.00001,0.00002,31.8,31.8,14,0,0,0.0,0.74,0.00,0.00
15min,AgWx,bigpiney,439,22APR2021:06:30:00,16.5,12.34,13.1,12.4,13.0,15.2,11.7,81,82,80,0.218,8.1,10.2,6.9,4.56,3.4,212,6.3,4.6,0.00001,0.00001,31.8,31.7,14,3,0,0.0,0.74,0.00,0.00
15min,AgWx,bigpiney,439,22APR2021:06:45:00,16.2,12.35,13.5,13.0,12.2,13.0,11.7,82,83,82,0.226,7.7,8.8,7.2,3.31,3.9,213,5.0,4.8,-0.00011,-0.00008,31.8,31.8,14,19,0,0.0,0.74,0.00,0.00
15min,AgWx,bigpiney,439,22APR2021:07:00:00,16.2,12.38,14.3,13.4,12.8,13.4,12.5,82,83,81,0.230,8.3,9.1,7.9,3.508,3.3,207,7.1,4.3,-0.00006,-0.00003,31.8,31.9,14,49,0,0.0,0.74,0.00,0.00
15min,AgWx,bigpiney,439,22APR2021:07:15:00,16.5,12.38,18.4,17.5,15.2,17.6,13.5,82,83,81,0.270,10.8,13.1,9.1,3.464,3.3,239,24,4.3,0.00002,0.00006,31.8,31.9,14,84,0,0.0,0.74,0.00,0.00
15min,AgWx,bigpiney,439,22APR2021:07:30:00,17.8,12.42,20.6,19.8,19.0,20.1,17.6,81,83,77,0.283,14.1,14.9,12.7,0,0.9,285,4.4,3.2,0.00010,0.00013,31.8,31.8,14,123,0,0.0,0.74,0.00,0.00
15min,AgWx,bigpiney,439,22APR2021:07:45:00,19.6,12.5,21.3,20.7,20.2,20.8,19.8,78,79,77,0.296,14.3,15.0,13.8,0.943,0.3,7.0,13,1.5,0.00025,0.00027,31.8,31.8,14,167,0,0.0,0.74,0.00,0.00
15min,AgWx,bigpiney,439,22APR2021:08:00:00,21.7,12.64,23.6,22.6,21.7,22.7,20.7,77,79,75,0.316,15.7,16.7,14.7,0,0.2,26,24,1.1,0.00043,0.00046,31.8,31.9,14,215,0,0.0,0.74,0.00,0.00
15min,AgWx,bigpiney,439,22APR2021:08:15:00,24.1,13.05,24.7,23.7,23.1,23.8,22.6,76,77,73,0.319,16.6,17.2,16.0,0,0.4,124,12,1.5,0.00063,0.00069,31.8,31.8,14,266,0,0.0,0.74,0.00,0.00
15min,AgWx,bigpiney,439,22APR2021:08:30:00,25.8,13.49,25.6,25.4,24.4,25.4,23.8,74,76,73,0.343,17.3,18.1,16.4,0,0.5,105,9.9,1.8,0.00085,0.00092,31.8,31.8,14,318,0,0.0,0.74,0.00,0.00
15min,AgWx,bigpiney,439,22APR2021:08:45:00,27.1,13.81,27.2,27.1,26.2,27.1,25.3,73,75,72,0.367,18.8,20.0,17.9,0,0.5,85,7.9,2.3,0.00109,0.00117,31.8,31.9,14,369,0,0.0,0.74,0.00,0.00
15min,AgWx,bigpiney,439,22APR2021:09:00:00,28.8,14.91,28.1,27.9,27.5,28.3,26.9,73,76,71,0.365,20.0,21.6,19.2,0.241,1.8,92,24,3.4,0.00129,0.00143,31.8,31.9,14,422,0,0.0,0.74,0.00,0.00